Tracking 26544 objects as of 9-Dec-2022
HD Live streaming from Space Station
objects crossing your sky now

STARLINK-5079

Track STARLINK-5079 now!
10-day predictions
STARLINK-5079 is classified as:


NORAD ID: 53999
Int'l Code: 2022-125AM
Perigee: 533.9 km
Apogee: 535.7 km
Inclination: 53.2 °
Period: 95.2 minutes
Semi major axis: 6905 km
RCS: Unknown
Launch date: October 5, 2022
Source: United States (US)
Launch site: AIR FORCE WESTERN TEST RANGE (AFWTR)
aabbcc
Your satellite tracking list
Your tracking list is empty




NASA's NSSDC Master Catalog

Two Line Element Set (TLE):
1 53999U 22125AM  22342.80054639 -.00489852  00000-0 -29186-1 0  9990
2 53999  53.2188 142.1998 0001315 110.3674 249.7461 15.12813088 10359
Source of the keplerian elements: AFSPC